Marshfield, WI

5:18 PM CST on February 23, 2018 (GMT -0600)
Marshfield Municipal

Weather History for KMFI - July, 2014

Change the Weather History Date:

Thursday, July 10, 2014

  Actual Average Record
Temperature  
Mean Temperature 66 °F -  
Max Temperature 78 °F 82 °F 95 °F (1921)
Min Temperature 53 °F 58 °F 43 °F (1913)
Growing Degree Days 16 (Base 50)    
Moisture  
Dew Point 58 °F    
Average Humidity 73    
Maximum Humidity 93    
Minimum Humidity 55    
Precipitation  
Precipitation 0.00 in - - ()
Sea Level Pressure  
Sea Level Pressure 30.10 in    
Wind  
Wind Speed 5 mph (SSE)    
Max Wind Speed 14 mph    
Max Gust Speed -    
Visibility 10 miles    
Events      
Averages and records for this station are not official NWS values.
T = Trace of Precipitation, MM = Missing Value Source: NWS Daily Summary

Daily Weather History Graph

Daily Weather History Graph

Search for Another Location

Airport or City:

Trip Planner

Search our weather history database for the weather conditions in past years. The results will help you decide how hot, cold, wet, or windy it might be!

Date:

Astronomy

Jul. 10, 2014 Rise Set
Actual Time 5:25 AM CDT 8:46 PM CDT
Civil Twilight 4:49 AM CDT 9:22 PM CDT
Nautical Twilight 4:02 AM CDT 10:09 PM CDT
Astronomical Twilight 3:03 AM CDT 11:08 PM CDT
Moon 6:56 PM CDT (7/10) 3:39 AM CDT (7/10)
Length of Visible Light 16h 33m
Length of Day
15h 21m
Waxing Gibbous, 95% of the Moon is Illuminated
Jul 10
Waxing Gibbous
Jul 12
Full
Jul 18
Last Quarter
Jul 26
New
Aug 3
First Quarter

Hourly Weather History & Observations

Time (CDT) Temp. Dew Point Humidity Pressure Visibility Wind Dir Wind Speed Gust Speed Precip Events Conditions
12:54 AM 55.9 °F 52.0 °F 87% 30.07 in 10.0 mi Calm Calm - N/A   Clear
1:54 AM 54.0 °F 52.0 °F 93% 30.08 in 10.0 mi Calm Calm - N/A   Clear
3:54 AM 53.1 °F 50.0 °F 89% 30.11 in 10.0 mi Calm Calm - N/A   Clear
4:54 AM 53.1 °F 50.0 °F 89% 30.11 in 10.0 mi Calm Calm - N/A   Clear
5:54 AM 53.1 °F 50.0 °F 89% 30.12 in 10.0 mi ENE 3.5 mph - N/A   Clear
6:54 AM 57.0 °F 53.1 °F 87% 30.13 in 10.0 mi ESE 3.5 mph - N/A   Clear
7:54 AM 63.0 °F 55.0 °F 75% 30.13 in 10.0 mi SSE 5.8 mph - N/A   Clear
8:54 AM 66.0 °F 55.9 °F 70% 30.14 in 10.0 mi South 8.1 mph - N/A   Clear
9:54 AM 69.1 °F 57.0 °F 65% 30.14 in 10.0 mi South 9.2 mph - N/A   Clear
10:54 AM 72.0 °F 57.0 °F 59% 30.13 in 10.0 mi South 10.4 mph - N/A   Clear
11:54 AM 73.9 °F 57.0 °F 55% 30.13 in 10.0 mi South 12.7 mph - N/A   Clear
12:54 PM 75.0 °F 59.0 °F 57% 30.12 in 10.0 mi South 10.4 mph - N/A   Partly Cloudy
1:54 PM 75.9 °F 59.0 °F 56% 30.12 in 10.0 mi SSW 13.8 mph - N/A   Partly Cloudy
2:54 PM 75.0 °F 59.0 °F 57% 30.10 in 10.0 mi South 10.4 mph - N/A   Partly Cloudy
3:54 PM 78.1 °F 61.0 °F 56% 30.09 in 10.0 mi SSE 11.5 mph - N/A   Scattered Clouds
4:54 PM 77.0 °F 62.1 °F 60% 30.07 in 10.0 mi SSE 12.7 mph - N/A   Clear
5:54 PM 77.0 °F 63.0 °F 62% 30.06 in 10.0 mi SSE 12.7 mph - N/A   Clear
6:54 PM 73.9 °F 63.0 °F 68% 30.06 in 10.0 mi SSE 8.1 mph - N/A   Clear
7:54 PM 72.0 °F 64.0 °F 76% 30.07 in 10.0 mi South 6.9 mph - N/A   Scattered Clouds
8:54 PM 69.1 °F 64.0 °F 84% 30.07 in 9.0 mi South 5.8 mph - N/A   Clear
9:54 PM 68.0 °F 64.0 °F 87% 30.09 in 9.0 mi SSE 5.8 mph - N/A   Mostly Cloudy
10:54 PM 69.1 °F 63.0 °F 81% 30.08 in 9.0 mi SSW 6.9 mph - N/A   Overcast
11:54 PM 68.0 °F 62.1 °F 81% 30.09 in 10.0 mi SSW 8.1 mph - N/A   Clear